Home   Weather   51°00'N, 114°01'W   Past weeks
Flag for Canada

Past Weather in 51°00'N, 114°01'W, Canada — Yesterday and Last 2 Weeks

Now
45 °F

Passing clouds.


Feels Like: 43 °F
Forecast: 65 / 44 °F
Wind: 3 mph from West

Location: Calgary International

Current Time: Aug 17, 2019 at 7:32:29 am

Latest Report: Aug 17, 2019 at 7:00 am


Visibility: 40 mi

Pressure: 29.99 "Hg

Humidity: 76%

Dew Point: 37 °F

Location of 51°00'N, 114°01'WLocation

Past Weather in 51°00'N, 114°01'W — Graph

°F

51°00'N, 114°01'W Temperature Yesterday

Maximum temperature yesterday: 66 °F (at 12:00 am)
Minimum temperature yesterday: 48 °F (at 11:00 pm)
Average temperature yesterday: 54 °F

High & Low Weather Summary for the Past Weeks

 TemperatureHumidityPressure
High86 °F (Aug 2, 2:00 pm)100% (Aug 7, 6:14 am)30.24 "Hg (Aug 7, 6:14 am)
Low45 °F (Aug 17, 6:00 am)19% (Aug 2, 4:00 pm)29.82 "Hg (Aug 16, 12:00 am)
Average60 °F72%30.06 "Hg
* Reported Aug 2 6:00 am — Aug 17 6:00 am, 51°00'N, 114°01'W. Weather by CustomWeather, © 2019

Note: Actual official high and low records may vary slightly from our data, if they occured in-between our weather recording intervals... More about our weather records

Advertising

51°00'N, 114°01'W Weather History for the Previous 24 Hours

Scroll right to see more
 ConditionsComfort  
Time TempWeatherWind HumidityBarometerVisibility
6:00 am
Sat, Aug 17
45 °FPassing clouds.3 mph81%30.00 "Hg15 mi
5:00 am46 °FPartly cloudy.7 mph82%30.01 "Hg15 mi
4:00 am48 °FPassing clouds.6 mph71%30.02 "Hg15 mi
3:00 am48 °FPassing clouds.6 mph71%30.03 "Hg15 mi
2:00 am50 °FPassing clouds.5 mph67%30.04 "Hg15 mi
1:00 am48 °FPassing clouds.7 mph76%30.06 "Hg15 mi
12:00 am48 °FPassing clouds.3 mph76%30.06 "Hg15 mi
11:00 pm
Fri, Aug 16
48 °FPartly cloudy.8 mph76%30.06 "Hg15 mi
10:00 pm50 °FPassing clouds.12 mph71%30.06 "Hg15 mi
9:00 pm52 °FPartly cloudy.12 mph67%30.03 "Hg20 mi
8:00 pm54 °FBroken clouds.13 mph63%30.03 "Hg20 mi
7:00 pm55 °FBroken clouds.17 mph59%30.01 "Hg15 mi
6:00 pm55 °FPartly sunny.17 mph63%30.00 "Hg12 mi
5:00 pm55 °FScattered showers. Partly sunny.16 mph59%29.98 "Hg15 mi
4:00 pm55 °FPartly sunny.20 mph59%29.99 "Hg15 mi
3:00 pm55 °FBroken clouds.16 mph63%29.99 "Hg15 mi
2:00 pm54 °FCloudy.21 mph63%29.99 "Hg15 mi
1:00 pm54 °FBroken clouds.21 mph72%29.99 "Hg15 mi
11:05 am50 °FSprinkles. More clouds than sun.21 mph88%29.97 "Hg9 mi
10:44 am50 °FSprinkles. Fog.24 mph94%29.96 "Hg6 mi
10:16 am50 °FRain showers. Fog.18 mph94%29.95 "Hg5 mi
10:00 am50 °FSprinkles. Fog.15 mph94%29.95 "Hg4 mi
9:44 am50 °FCool.14 mph94%29.94 "Hg3 mi
9:37 am50 °FCool.22 mph94%29.93 "Hg2 mi
9:10 am57 °FSprinkles. Cloudy.3 mph88%29.89 "Hg13 mi
8:42 am55 °FBroken clouds.5 mph94%29.87 "Hg13 mi
8:00 am55 °FSprinkles. Broken clouds.No wind88%29.87 "Hg14 mi
7:00 am55 °FLight rain. More clouds than sun.6 mph88%29.87 "Hg8 mi
Weather by CustomWeather, © 2019

See weather overview